Location: Most
(50.5133°N, 13.6207°E)
Time: 10:45:15
(UTC+01:00)

Oscar 11 - Pass Details

Date: 05 December 2022
Orbit: 611 x 621 km, 97.6° (Epoch: 28 January)

Event Time Altitude Azimuth Distance (km) Brightness Sun altitude
Rises 06:13:00 0° 2° (N) 2,891 10.3 -14.5°
Reaches altitude 10° 06:15:41 10° 345° (NNW) 1,980 9.3 -14.1°
Enters shadow 06:17:39 18° 319° (NW) 1,535 8.6 -13.8°
